FW0633 Weather Reports


Display with metric or nautical units.
time (UTC)temp
F
wind
direction
speed
MPH
gust
MPH
rain 1hr
in
rain 24hr
in
rain mn
in
humidity
%
barometer
mb
20260902140005 70 207 1.0 9.0 0.00 0.00 0.00 71 1039.6
20260902134505 68 216 1.0 5.0 0.00 0.00 0.00 74 1039.5
20260902133004 67 209 1.0 4.0 0.00 0.00 0.00 76 1039.4
20260902131504 67 220 0.0 2.0 0.00 0.00 0.00 76 1039.2
20260902130004 67 209 1.0 6.0 0.00 0.00 0.00 75 1039.0
20260902124504 67 198 1.0 5.0 0.00 0.00 0.00 76 1039.0
20260902123004 67 213 1.0 3.0 0.00 0.00 0.00 76 1038.9
20260902121525 67 214 0.0 3.0 0.00 0.00 0.00 75 1038.8
20260902120004 67 194 0.0 3.0 0.00 0.00 0.00 75 1038.7
20260902114504 68 191 1.0 4.0 0.00 0.00 0.00 74 1038.7
20260902113004 68 169 0.0 2.0 0.00 0.00 0.00 72 1038.8
20260902111504 68 139 0.0 3.0 0.00 0.00 0.00 72 1038.8
20260902110005 68 181 0.0 2.0 0.00 0.00 0.00 72 1038.9
20260902104525 68 174 0.0 1.0 0.00 0.00 0.00 72 1038.9
20260902103024 68 210 0.0 2.0 0.00 0.00 0.00 71 1039.0
20260902101503 69 199 0.0 2.0 0.00 0.00 0.00 71 1039.0
20260902100004 69 219 0.0 3.0 0.00 0.00 0.00 70 1039.1
20260902094505 69 209 0.0 2.0 0.00 0.00 0.00 71 1039.1
20260902093004 70 202 1.0 6.0 0.00 0.00 0.00 70 1039.2
20260902091524 70 200 1.0 4.0 0.00 0.00 0.00 69 1039.1
20260902090004 70 175 1.0 5.0 0.00 0.00 0.00 68 1039.3
20260902084503 70 204 1.0 3.0 0.00 0.00 0.00 68 1039.4
20260902083025 69 212 0.0 2.0 0.00 0.00 0.00 69 1039.5
20260902081503 69 205 0.0 2.0 0.00 0.00 0.00 68 1039.4
20260902080003 70 215 0.0 3.0 0.00 0.00 0.00 68 1039.4
20260902074525 69 212 1.0 3.0 0.00 0.00 0.00 68 1039.4
20260902073004 68 202 0.0 3.0 0.00 0.00 0.00 70 1039.2
20260902071524 67 0 0.0 0.0 0.00 0.00 0.00 73 1039.2
20260902070004 66 0 0.0 0.0 0.00 0.00 0.00 74 1039.2
20260902064504 66 0 0.0 0.0 0.00 0.00 0.00 75 1039.3
20260902063003 66 0 0.0 0.0 0.00 0.00 0.00 76 1039.4
20260902061524 65 0 0.0 0.0 0.00 0.00 0.00 77 1039.4
20260902060003 65 0 0.0 0.0 0.00 0.00 0.00 77 1039.6
20260902054524 65 272 0.0 1.0 0.00 0.00 0.00 76 1039.6
20260902053003 66 0 0.0 0.0 0.00 0.00 0.00 75 1039.6
20260902051503 66 0 0.0 0.0 0.00 0.00 0.00 73 1039.6
20260902050004 67 0 0.0 0.0 0.00 0.00 0.00 72 1039.7
20260902044503 68 0 0.0 0.0 0.00 0.00 0.00 71 1039.6
20260902043003 69 0 0.0 0.0 0.00 0.00 0.00 68 1039.4
20260902041506 70 0 0.0 0.0 0.00 0.00 0.00 64 1039.3
20260902040027 71 0 0.0 0.0 0.00 0.00 0.00 61 1039.2
20260902034506 72 173 0.0 1.0 0.00 0.00 0.00 60 1039.2
20260902033005 72 0 0.0 0.0 0.00 0.00 0.00 58 1039.0
20260902031505 73 122 0.0 1.0 0.00 0.00 0.00 57 1038.8
20260902030006 73 147 0.0 2.0 0.00 0.00 0.00 56 1038.4
20260902024505 74 212 0.0 2.0 0.00 0.00 0.00 56 1038.2
20260902023005 75 200 0.0 2.0 0.00 0.00 0.00 55 1038.3
20260902021505 75 216 0.0 3.0 0.00 0.00 0.00 53 1038.2
20260902020006 76 232 1.0 6.0 0.00 0.00 0.00 51 1037.8
20260902014526 77 233 2.0 5.0 0.00 0.00 0.00 49 1037.8
20260902013006 78 236 2.0 5.0 0.00 0.00 0.00 46 1037.8
20260902011505 81 236 2.0 5.0 0.00 0.00 0.00 42 1037.9
20260902010005 82 240 1.0 6.0 0.00 0.00 0.00 41 1038.0
20260902004505 81 252 3.0 8.0 0.00 0.00 0.00 40 1037.9
20260902003005 82 243 1.0 7.0 0.00 0.00 0.00 43 1037.9
20260902001505 83 245 3.0 9.0 0.00 0.00 0.00 42 1038.0
20260902000005 84 235 2.0 10.0 0.00 0.00 0.00 40 1038.0
20260901234506 84 246 3.0 9.0 0.00 0.00 0.00 40 1038.1
20260901233006 84 246 3.0 9.0 0.00 0.00 0.00 39 1038.2
20260901231505 85 246 3.0 8.0 0.00 0.00 0.00 37 1038.2
20260901230005 85 243 3.0 11.0 0.00 0.00 0.00 39 1038.3
20260901224505 84 181 4.0 12.0 0.00 0.00 0.00 42 1038.2
20260901223006 84 190 4.0 12.0 0.00 0.00 0.00 44 1038.3
20260901221526 84 154 5.0 12.0 0.00 0.00 0.00 43 1038.4
20260901220005 84 223 3.0 8.0 0.00 0.00 0.00 41 1038.5
20260901214505 83 156 5.0 15.0 0.00 0.00 0.00 43 1038.6
20260901213026 84 188 4.0 10.0 0.00 0.00 0.00 42 1038.8
20260901211505 84 176 3.0 8.0 0.00 0.00 0.00 44 1039.0
20260901210005 84 210 3.0 11.0 0.00 0.00 0.00 43 1039.2
20260901204505 84 214 3.0 10.0 0.00 0.00 0.00 40 1039.4
20260901203005 85 224 4.0 11.0 0.00 0.00 0.00 40 1039.3
20260901201526 86 213 4.0 13.0 0.00 0.00 0.00 38 1039.5
20260901200005 86 203 4.0 11.0 0.00 0.00 0.00 39 1039.6
20260901194505 84 155 4.0 13.0 0.00 0.00 0.00 43 1039.8
20260901193026 85 219 3.0 9.0 0.00 0.00 0.00 41 1040.0
20260901191505 85 213 4.0 12.0 0.00 0.00 0.00 42 1040.2
20260901190004 84 196 4.0 13.0 0.00 0.00 0.00 44 1040.4
20260901184505 84 192 4.0 10.0 0.00 0.00 0.00 46 1040.4
20260901183005 84 203 3.0 9.0 0.00 0.00 0.00 46 1040.4
20260901181504 83 206 4.0 10.0 0.00 0.00 0.00 47 1040.5
20260901180005 80 127 4.0 11.0 0.00 0.00 0.00 54 1040.5
20260901174504 79 130 3.0 7.0 0.00 0.00 0.00 57 1040.6
20260901173026 80 185 3.0 8.0 0.00 0.00 0.00 51 1040.5
20260901171504 78 121 4.0 8.0 0.00 0.00 0.00 59 1040.7
20260901170004 79 146 4.0 9.0 0.00 0.00 0.00 54 1040.5
20260901164504 79 206 3.0 11.0 0.00 0.00 0.00 55 1040.4
20260901163005 78 168 2.0 7.0 0.00 0.00 0.00 59 1040.3
20260901161505 78 196 1.0 5.0 0.00 0.00 0.00 61 1040.2
20260901160026 76 160 2.0 6.0 0.00 0.00 0.00 63 1040.2
20260901154504 75 114 2.0 6.0 0.00 0.00 0.00 66 1040.1
20260901153005 75 226 1.0 2.0 0.00 0.00 0.00 64 1040.2
20260901151505 74 176 0.0 2.0 0.00 0.00 0.00 64 1040.2
20260901150004 73 101 0.0 1.0 0.00 0.00 0.00 62 1040.2
20260901144504 71 107 0.0 1.0 0.00 0.00 0.00 67 1040.2
20260901143026 67 0 0.0 0.0 0.00 0.00 0.00 75 1040.1
20260901141504 64 0 0.0 0.0 0.00 0.00 0.00 81 1040.0